Tracking 18984 objects as of 24-Feb-2018
HD Live streaming from Space Station
objects crossing your sky now

FENGYUN 1C DEB

Track FENGYUN 1C DEB now!
10-day predictions


NORAD ID: 30503
Int'l Code: 1999-025AHR
Perigee: 849.1 km
Apogee: 862.1 km
Inclination: 99.0 °
Period: 101.9 minutes
Semi major axis: 7226 km
RCS: 0.0055 m2 (small)
Launch date: May 10, 1999
Source: People's Republic of China (PRC)
Launch site: Taiyaun Space Center, China (TSC)

Note: This is SATELLITE DEBRIS
aabbcc
Your satellite tracking list
Your tracking list is empty




NASA's NSSDC Master Catalog

Two Line Element Set (TLE):
1 30503U 99025AHR 18054.75309600  .00000104  00000-0  79542-4 0  9990
2 30503  98.9897 162.2842 0008979  17.7122 137.7522 14.13190728571119
Source of the keplerian elements: AFSPC